Боково-Платово

Украина / Луганская область     48°06′51″N   39°01′36″E
темп.,
°C
ветер,
м/с
пор.,
м/с
влажн.,
%
обл.,
%
осадки,
мм/ч
давл.,
гПа
погр.,
м
7 мая, пт
пт700:00+12ююв2283100 0.0 101212
03:00+10юз228746 0.0 101211
06:00+10юз1173100 0.0 101226
09:00+15зсз4569100 0.0 1014778
12:00+18зсз665559 0.1 10141695
15:00+19сз353945 0.1 10152198
18:00+19ссз23425 0.0 10151075
21:00+13всв115534 0.0 101611
8 мая, сб
сб800:00+11вюв2274100 0.0 101628
03:00+11ююв2484100 0.0 1016104
06:00+11ююв2691100 0.0 1015213
09:00+15ю5762100 0.0 1014582
12:00+18ю6857100 0.0 10131090
15:00+20ююз795191 0.0 10111422
18:00+18ююз686059 0.0 10111040
21:00+13ююз3373100 0.0 101045
9 мая, вс
вс900:00+12ссз61087100 0.1 1010511
03:00+9ссз81285100 1.3 1012698
06:00+6ссз71189100 5.3 1013683
09:00+8ссз81176100 7.6 10141101
12:00+10ссз81160100 0.1 10151408
15:00+11ссз81158100 0.1 10181604
18:00+11с696197 0.0 10191303
21:00+7сз36710 0.0 1021108
10 мая, пн
пн1000:00+5сз410772 0.0 1021238
03:00+5сз411825 0.0 1022333
06:00+6сз61374100 0.0 1021573
09:00+9сз81265100 0.0 10201330
12:00+7ссз61184100 1.6 10191136
15:00+6сз61091100 6.3 10171068
18:00+7сз4991100 1.6 1014591
21:00+7ююз1195100 1.9 101360
11 мая, вт
вт1100:00+7вюв3597100 0.0 1014291
03:00+6всв2496100 0.1 1014270
06:00+6всв3691100 0.0 1015338
09:00+8в688693 0.2 1015702
12:00+7в71090100 0.4 10161067
15:00+7вюв91392100 1.0 10191169
18:00+10вюв8138694 0.6 10201040
21:00+7всв4129125 0.9 1021278